Honolulu, HI

9:50 PM HST on June 22, 2017 (GMT -1000)
Honolulu International

Weather History for PHNL - July, 2013

Change the Weather History Date:

Thursday, July 11, 2013

  Actual Average Record
Temperature  
Mean Temperature 80 °F 81 °F  
Max Temperature 86 °F 88 °F 91 °F (1985)
Min Temperature 74 °F 74 °F 68 °F (1979)
Degree Days  
Heating Degree Days 0 0  
Month to date heating degree days 0 0  
Since 1 June heating degree days 0 0  
Since 1 July heating degree days 0 0  
Cooling Degree Days 15 16  
Month to date cooling degree days 161 176  
Year to date cooling degree days 2030 2134  
Since 1 June cooling degree days 570 632  
Growing Degree Days 30 (Base 50)    
Moisture  
Dew Point 65 °F    
Average Humidity 63    
Maximum Humidity 74    
Minimum Humidity 51    
Precipitation  
Precipitation 0.01 in 0.02 in 0.24 in (1970)
Month to date precipitation 0.03 0.14  
Year to date precipitation 8.66 7.97  
Snow  
Snow 0.00 in - - ()
Month to date snowfall 0.0  
Since 1 June snowfall 0.0  
Since 1 July snowfall 0.0  
Snow Depth 0.00 in    
Sea Level Pressure  
Sea Level Pressure 30.08 in    
Wind  
Wind Speed 17 mph (ENE)    
Max Wind Speed 26 mph    
Max Gust Speed 35 mph    
Visibility 10 miles    
Events      
T = Trace of Precipitation, MM = Missing Value Source: NWS Daily Summary

Daily Weather History Graph

Daily Weather History Graph

Search for Another Location

Airport or City:

Trip Planner

Search our weather history database for the weather conditions in past years. The results will help you decide how hot, cold, wet, or windy it might be!

Date:

Astronomy

Jul. 11, 2013 Rise Set
Actual Time 5:57 AM HST 7:17 PM HST
Civil Twilight 5:32 AM HST 7:41 PM HST
Nautical Twilight 5:03 AM HST 8:11 PM HST
Astronomical Twilight 4:33 AM HST 8:41 PM HST
Moon 8:56 AM HST (7/11) 9:38 PM HST (7/11)
Length of Visible Light 14h 09m
Length of Day
13h 20m
Waxing Crescent, 12% of the Moon is Illuminated
Jul 11
Waxing Crescent
Jul 15
First Quarter
Jul 22
Full
Jul 29
Last Quarter
Aug 6
New

Hourly Weather History & Observations

Time (HST) Temp. Heat Index Dew Point Humidity Pressure Visibility Wind Dir Wind Speed Gust Speed Precip Events Conditions
12:53 AM 77.0 °F - 64.9 °F 66% 30.11 in 10.0 mi ENE 18.4 mph 24.2 mph 0.00 in   Mostly Cloudy
1:53 AM 75.9 °F - 66.0 °F 71% 30.09 in 10.0 mi ENE 11.5 mph 23.0 mph 0.00 in   Mostly Cloudy
2:53 AM 75.9 °F - 64.9 °F 69% 30.09 in 10.0 mi ENE 16.1 mph - 0.00 in   Mostly Cloudy
3:53 AM 75.9 °F - 64.9 °F 69% 30.08 in 10.0 mi ENE 15.0 mph 21.9 mph N/A   Mostly Cloudy
4:53 AM 75.9 °F - 64.9 °F 69% 30.08 in 10.0 mi ENE 10.4 mph - N/A   Mostly Cloudy
5:53 AM 75.9 °F - 64.9 °F 69% 30.09 in 10.0 mi ENE 16.1 mph 21.9 mph 0.00 in   Mostly Cloudy
6:53 AM 75.9 °F - 64.9 °F 69% 30.10 in 10.0 mi ENE 15.0 mph - 0.00 in   Mostly Cloudy
7:53 AM 77.0 °F - 64.9 °F 66% 30.11 in 10.0 mi ENE 18.4 mph 24.2 mph 0.01 in   Mostly Cloudy
8:53 AM 80.1 °F 81.9 °F 64.9 °F 60% 30.11 in 10.0 mi ENE 16.1 mph 25.3 mph N/A   Scattered Clouds
9:53 AM 82.0 °F 83.4 °F 64.0 °F 54% 30.10 in 10.0 mi ENE 19.6 mph 26.5 mph 0.00 in   Mostly Cloudy
10:53 AM 81.0 °F 83.3 °F 66.9 °F 62% 30.11 in 10.0 mi NE 21.9 mph 28.8 mph 0.00 in   Mostly Cloudy
11:53 AM 82.0 °F 83.8 °F 64.9 °F 56% 30.09 in 10.0 mi ENE 16.1 mph 28.8 mph N/A   Mostly Cloudy
12:53 PM 84.0 °F 85.4 °F 64.0 °F 51% 30.09 in 10.0 mi NE 24.2 mph 29.9 mph N/A   Scattered Clouds
1:53 PM 84.9 °F 86.1 °F 64.0 °F 49% 30.08 in 10.0 mi NE 18.4 mph 28.8 mph N/A   Scattered Clouds
2:53 PM 84.9 °F 86.1 °F 64.0 °F 49% 30.06 in 10.0 mi ENE 20.7 mph 26.5 mph N/A   Scattered Clouds
3:53 PM 82.0 °F 83.8 °F 64.9 °F 56% 30.04 in 10.0 mi ENE 18.4 mph 27.6 mph N/A   Scattered Clouds
4:53 PM 82.0 °F 83.8 °F 64.9 °F 56% 30.03 in 10.0 mi ENE 17.3 mph 26.5 mph N/A   Scattered Clouds
5:53 PM 80.1 °F 81.9 °F 64.9 °F 60% 30.03 in 10.0 mi ENE 16.1 mph 24.2 mph N/A   Mostly Cloudy
6:53 PM 79.0 °F - 64.0 °F 60% 30.05 in 10.0 mi ENE 15.0 mph - N/A   Scattered Clouds
7:53 PM 78.1 °F - 64.9 °F 64% 30.06 in 10.0 mi ENE 9.2 mph - N/A   Scattered Clouds
8:53 PM 77.0 °F - 64.0 °F 64% 30.07 in 10.0 mi NE 13.8 mph - N/A   Partly Cloudy
9:53 PM 75.9 °F - 66.0 °F 71% 30.09 in 10.0 mi ENE 11.5 mph - 0.00 in   Mostly Cloudy
10:53 PM 75.9 °F - 64.0 °F 67% 30.09 in 10.0 mi NE 11.5 mph - 0.00 in   Partly Cloudy
11:53 PM 75.0 °F - 66.0 °F 73% 30.09 in 10.0 mi NE 10.4 mph - N/A   Scattered Clouds